Regional Weather Roundup
Issued by NWS

Home | Current Version | Previous Version | Graphics & Text | Print | Product List | Glossary Off
Versions: 1 2 3 4 5 6 7 8 9 10 11 12 13 14 15 16 17 18 19 20 21 22 23 24 25 26 27 28 29 30 31 32 33 34 35 36 37 38 39 40 41 42 43 44 45 46 47 48 49 50

000
ASUS43 KMKX 250900
RWRWI

WISCONSIN REGIONAL WEATHER ROUNDUP
NATIONAL WEATHER SERVICE MILWAUKEE/SULLIVAN WI
300 AM CST SAT FEB 25 2017

NOTE: "FAIR" INDICATES FEW OR NO CLOUDS BELOW 12,000 FEET WITH NO
SIGNIFICANT WEATHER AND/OR OBSTRUCTIONS TO VISIBILITY.

WIZ001-002-006>008-014>016-023>028-251000-
NORTHWEST WISCONSIN

CITY           SKY/WX    TMP DP  RH WIND       PRES   REMARKS
SUPERIOR ARPT  CLEAR     14   5  67 N16G22    29.86S WCI  -2
ASHLAND        CLOUDY    16   7  67 NW15      29.77S WCI   1
HAYWARD        CLEAR     14   3  61 VRB6G17   29.76S WCI   5
SIREN          CLEAR     14   4  64 N10G18    29.85S WCI   1
CUMBERLAND     MOCLDY    14   5  67 NW16G30   29.78F WCI  -2
RICE LAKE      PTCLDY    15   5  64 NW9G23    29.80F WCI   3
CHETEK         PTCLDY    14   5  67 NW3       29.79S
LADYSMITH      CLOUDY    17   8  68 NW13      29.74F WCI   3
EAU CLAIRE     NOT AVBL
MENOMONIE      CLEAR     16   5  61 W12       29.81S WCI   3
NEW RICHMOND   CLEAR     16   6  64 NW15G29   29.85S WCI   1
OSCEOLA        CLEAR     16   5  62 NW10G21   29.90S WCI   4
$$

WIZ003>005-009-010-017-018-251000-
NORTH CENTRAL WISCONSIN

CITY           SKY/WX    TMP DP  RH WIND       PRES   REMARKS
MANITOWISH WTR LGT SNOW  14  13  95 NW8       29.62F WCI   3
ARBOR VITAE    LGT SNOW  17  13  86 N10         N/A  WCI   4
WOODRUFF       LGT SNOW  17  13  86 N10         N/A  WCI   4
RHINELANDER    LGT SNOW  16  11  80 NW10      29.58F WCI   4
EAGLE RIVER    LGT SNOW  15   9  79 N13G20    29.57F WCI   0
LAND O LAKES   LGT SNOW  15  11  85 NW10G18   29.59F WCI   2
PHILLIPS       CLOUDY    14   8  78 NW9G18    29.66F WCI   2
TOMAHAWK       LGT SNOW  15  12  85 NW9       29.62F WCI   4
MEDFORD        LGT SNOW  14   9  79 NW15G22   29.64F WCI  -1
MERRILL        NOT AVBL
$$

WIZ029-030-035-036-043>047-251000-
CENTRAL WISCONSIN

CITY           SKY/WX    TMP DP  RH WIND       PRES   REMARKS
WAUSAU         LGT SNOW  17  11  77 NW12      29.62S WCI   4
MOSINEE        LGT SNOW  18  14  86 NW16G22   29.64S WCI   3
MARSHFIELD     LGT SNOW  16  10  77 NW22G29   29.66S WCI  -2
STEVENS POINT  LGT SNOW  16  13  86 NW9G20    29.64S WCI   5
WAUPACA        LGT SNOW  21  17  83 NW8       29.63S WCI  12
WAUTOMA        LGT SNOW  18  16  92 NW13      29.66R FOG     WCI   5
WISC RAPIDS    LGT SNOW  17  14  88 NW17G23   29.68S FOG     WCI   1
CAMP DOUGLAS   LGT SNOW  18  14  86 NW12      29.71S WCI   5
$$

WIZ011>013-019>022-031-037>040-048>050-251000-
NORTHEAST WISCONSIN

CITY           SKY/WX    TMP DP  RH WIND       PRES   REMARKS
ANTIGO         LGT SNOW  15  11  83 NW15      29.57F WCI   0
SHAWANO        LGT SNOW  22  17  83 CALM      29.60R
OCONTO         CLOUDY    21  15  78 NW6       29.56S WCI  14
STURGEON BAY   FLURRIES  22  18  85 NW17G23   29.53S WCI   8
GREEN BAY      LGT SNOW  22  19  89 NW15      29.57S FOG     WCI   9
MANITOWOC      LGT SNOW  21  19  93 NW14      29.55S FOG     WCI   8
APPLETON       LGT SNOW  21  16  79 NW10      29.57S WCI  10
CLINTONVILLE   LGT SNOW  21  18  86 NW10      29.60S WCI  10
OSHKOSH        LGT SNOW  20  16  84 NW12      29.59S FOG     WCI   8
$$

WIZ032>034-041-042-053>061-251000-
SOUTHWEST WISCONSIN

CITY           SKY/WX    TMP DP  RH WIND       PRES   REMARKS
LA CROSSE      CLOUDY    22  13  68 NW18      29.78F WCI   7
SPARTA         LGT SNOW  19  14  83 NW13G18   29.77S WCI   5
VIROQUA        CLOUDY    17  14  87 NW10G16   29.73S WCI   5
BOSCOBEL       LGT SNOW  20  14  77 NW12G21   29.78S WCI   8
PRAIRIE DU CHI CLOUDY    20  15  79 NW9G16    29.80S HAZE    WCI  10
PLATTEVILLE    MOCLDY    19  19  96 NW7       29.73S WCI  10
$$

WIZ056-057-062-063-064-067-068-251000-
SOUTH CENTRAL WISCONSIN

CITY           SKY/WX    TMP DP  RH WIND       PRES   REMARKS
REEDSBURG      LGT SNOW  17  16  94 W8        29.70R WCI   7
BARABOO/DELLS  LGT SNOW  17  15  90 NW8       29.68R VSB 1   WCI   7
LONE ROCK      NOT AVBL
MINERAL POINT  LGT SNOW  21  19  93 CALM      29.70S
MADISON        LGT SNOW  19  15  84 NW13G28   29.66R FOG     WCI   6
MIDDLETON      CLOUDY    20  18  90 NW7       29.67S WCI  12
WATERTOWN      LGT SNOW  21  20  97 NW12      29.62S WCI   9
MONROE         LGT SNOW  21  19  93 NW15      29.66S WCI   8
JANESVILLE     CLOUDY    23  21  93 NW13G22   29.65S WCI  11
$$

WIZ051-052-058>065-066-070>072-251000-
SOUTHEAST WISCONSIN

CITY           SKY/WX    TMP DP  RH WIND       PRES   REMARKS
MILWAUKEE      LGT SNOW  25  19  78 NW10G20   29.60R WCI  15
WAUKESHA       CLOUDY    21  19  93 W17       29.61R WCI   7
MILWAUKEE/TIMM LGT SNOW  23  19  86 W10       29.60S WCI  12
RACINE         LGT SNOW  26  21  81 NW8       29.61R WCI  18
KENOSHA        LGT SNOW  26  21  81 NW9       29.60R WCI  17
FOND DU LAC    LGT SNOW  21  16  81 NW12      29.60S WCI   9
SHEBOYGAN      LGT SNOW  22  17  81 NW14G20   29.57R WCI   9
WEST BEND      LGT SNOW  21  21 100 NW5       29.59R WCI  15
JUNEAU         LGT SNOW  19  17  90 W5        29.63R VSB 3/4 WCI  13
$$

LSZ147-162-251000-
LAKE SUPERIOR

STATION/POSITION TIME  TEMP    WIND        PRES    WAVE
                       AIR SEA DIR/SP/G            HT/PER
                 (UTC) (F)     (DEG/KT/KT) (MB)    (FT/S)
DEVILS ISLAND    0800   17     330/ 23/ 27 1009.6F
PORT WING        0840   17     320/ 18/ 23 1009.8F
SAXON HARBOR     0830   21     320/ 19/ 25 1007.1F
$$

LMZ867-665-643>646-251000-
LAKE MICHIGAN

STATION/POSITION TIME  TEMP    WIND        PRES    WAVE
                       AIR SEA DIR/SP/G            HT/PER
                 (UTC) (F)     (DEG/KT/KT) (MB)    (FT/S)
CHAMBERS ISLAND  0840   23     300/  3/  4  999.3S
NORTHPORT PIER   0840   26     330/  3/  3  998.6F
SISTER BAY       0805   24        CALM       N/A
KEWAUNEE LAKESHO 0830   22     320/ 10/ 16  999.9R
SHEBOYGAN LAKESH 0800   23     320/  6/  6 1001.6F
PORT WASHINGTON  0830   24     290/  9/ 13 1003.0S
MILWAUKEE LAKESH 0830   24     300/ 12/ 14   N/A
KENOSHA   LAKESH 0800   28     310/ 12/ 18 1002.4
$$

TC  - TEMPERATURE IN CELSIUS
VSB - VISIBILITY IN STATUTE MILES
WCI - WIND CHILL INDEX
HX  - HEAT INDEX





USA.gov is the U.S. government's official web portal to all federal, state and local government web resources and services.